Погода в Катунском

Россия / Алтайский край     52°24′41″N   85°07′05″E
темп.,
°C
ветер,
м/с
пор.,
м/с
влажн.,
%
обл.,
%
осадки,
мм/ч
давл.,
гПа
погр.,
м
22 октября, пт
пт2201:00+10юв334056 0.0 101426
04:00+9юв3343100 0.0 101336
07:00+9зюз3550100 0.0 101561
10:00+9з61261100 0.0 1017727
13:00+6з61185100 0.3 1021917
16:00+5зюз61283100 0.3 10241050
19:00+6зюз51067100 0.3 1026882
22:00+5зюз61263100 0.0 1028682
23 октября, сб
сб2301:00+3юз39735 0.0 1030236
04:00+2ююз376925 0.0 1030142
07:00+1ююз347499 0.0 103068
10:00+4ююз38663 0.0 1030330
13:00+8ююз7163769 0.0 10271831
16:00+10зюз81733100 0.0 10251916
19:00+8зюз71539100 0.0 1025782
22:00+7юз81953100 0.6 10261550
24 октября, вс
вс2401:00+7юз91851100 0.8 10251167
04:00+6юз71654100 0.0 1025955
07:00+6юз61453100 0.1 1026812
10:00+7юз51452100 0.0 1026833
13:00+9юз71549100 0.0 10251042
16:00+10зюз81550100 0.0 10261078
19:00+10зюз61453100 0.0 1027813
22:00+9зюз41054100 0.0 1027521
25 октября, пн
пн2501:00+8ю2359100 0.0 102782
04:00+8ю235985 0.0 102563
07:00+8ю2360100 0.0 102552
10:00+10ююз245675 0.0 1024144
13:00+13юз464338 0.0 1022806
16:00+14зюз584181 0.0 10211161
19:00+10з3457100 0.0 102251
22:00+7зюз336333 0.0 102337
26 октября, вт
вт2601:00+6юз226674 0.0 102312
04:00+6ююв116759 0.0 102210
07:00+5вюв227367 0.0 102123
10:00+7в366778 0.0 1019166
13:00+12вюв345058 0.0 1016384
16:00+14вюв224669 0.0 1014392
19:00+9юв116375 0.0 101310
22:00+8ю116381 0.0 101310